Dewpoint
31 29 28 26 23 22 23 24 27 38 28 14 13 11 11 18 21 24 46 48 48 50 53 53 56 60 60 60 61 61 63 64 65 65 64 65 65 65 65 68 68 68 68 69 68 69 68 69 70 70 69 69 71 71 71 71 71 71 71 71 73 74 74 74 74 75 76 76 74 73 72 75 74 71 69 68 70 70 72 66 62 63 63 62 67 69 70
28 29 27 26 26 32 32 39 38 39 37 42 27 15 11 15 34 30 50 50 46 48 50 50 55 58 58 60 61 61 63 63 64 64 64 64 65 65 66 67 66 68 67 68 69 70 70 69 70 70 70 70 71 71 71 71 71 72 71 71 71 72 72 73 74 75 76 75 74 75 74 74 73 73 70 69 68 71 70 70 72 72 73 68 63 65 70
29 30 29 27 26 28 35 39 38 37 36 39 44 26 20 33 42 47 45 50 49 51 55 57 58 60 60 60 61 61 62 63 63 64 63 64 65 65 65 66 66 66 68 67 67 68 69 71 70 71 71 72 71 71 72 73 73 72 73 72 72 71 72 73 74 74 75 74 74 74 74 73 73 73 72 71 71 72 72 71 74 76 72 67 64 63 64
31 31 29 27 37 29 38 39 38 40 44 43 45 44 47 47 48 44 45 48 52 54 57 57 59 59 59 59 60 62 62 62 64 64 64 65 65 66 66 66 66 66 68 67 67 67 69 70 70 71 72 72 72 72 72 72 73 74 74 73 72 72 72 73 73 73 73 73 73 73 73 72 72 72 71 72 72 71 70 71 74 69 69 70 72 67 63
31 31 29 29 37 32 34 37 35 41 43 46 47 46 47 47 47 48 48 51 53 54 58 58 58 58 59 60 62 61 61 62 63 64 64 65 65 65 66 66 66 66 65 66 67 68 68 69 69 71 71 71 70 70 70 71 71 72 72 72 73 72 73 73 73 74 73 73 73 73 72 72 72 72 71 71 71 71 72 73 74 74 74 72 71 71 67
29 30 30 31 30 30 37 36 40 47 46 49 49 47 47 48 50 52 51 52 55 56 55 55 57 58 59 61 63 64 64 64 62 63 63 65 64 63 64 64 64 65 67 66 67 67 67 68 69 70 69 69 69 70 70 70 70 70 70 70 70 70 71 72 72 72 73 73 73 73 72 73 73 73 71 71 71 73 74 75 74 73 74 73 73 73 71
32 34 38 30 30 29 42 36 34 37 49 50 46 47 49 51 52 53 52 55 54 56 56 57 59 60 60 61 61 62 63 63 63 64 65 63 62 62 63 63 64 65 65 67 67 67 68 67 68 68 68 68 68 68 69 69 69 69 69 69 69 69 69 69 70 71 72 72 72 73 73 73 73 74 72 72 74 75 74 74 74 74 75 73 72 72 71
39 32 31 28 29 41 40 33 34 35 34 40 42 46 49 53 54 55 54 55 56 58 57 59 61 59 59 61 63 61 62 63 64 61 61 61 61 62 63 63 64 65 65 66 65 66 67 65 65 65 65 66 66 66 67 67 67 68 68 68 67 68 68 68 69 69 70 71 71 71 72 73 73 73 73 74 73 75 75 75 75 74 74 72 72 71 71
31 32 33 38 41 41 40 42 40 37 33 37 44 45 47 53 55 55 55 55 55 56 58 60 58 58 57 58 61 64 63 63 61 60 59 59 59 60 61 61 62 62 64 66 65 64 63 62 62 63 64 64 64 64 65 65 66 66 66 66 66 66 67 67 68 69 69 70 70 70 71 71 71 72 72 73 73 74 74 73 73 73 72 71 71 72 72
39 35 38 32 33 34 40 43 41 37 33 33 49 47 45 52 54 55 55 55 56 56 58 59 60 56 56 54 57 62 63 63 60 58 58 58 58 59 59 60 59 61 61 61 61 60 61 61 61 62 62 63 64 64 64 64 64 65 64 65 66 66 65 66 67 68 68 68 69 69 69 69 69 70 72 72 73 74 73 73 73 73 72 71 71 72 73
32 35 30 32 31 34 45 45 40 39 34 33 34 39 45 48 55 55 55 55 55 56 57 58 58 58 53 54 55 58 61 63 63 58 56 55 54 55 54 53 53 54 56 58 59 60 58 57 58 60 61 60 58 59 60 59 59 59 60 61 62 64 63 65 66 67 68 68 67 68 68 68 69 69 70 71 72 72 72 73 73 73 72 70 70 71 72
29 39 35 34 38 40 43 44 42 40 37 36 36 30 38 48 54 55 55 55 56 57 57 58 56 56 53 53 53 54 55 58 60 53 51 51 51 50 49 50 51 53 56 54 51 50 51 54 54 54 53 54 56 55 55 55 56 58 60 61 61 62 62 62 63 64 67 68 67 67 68 68 68 69 70 71 71 71 71 72 72 73 71 70 69 70 70
36 36 37 35 39 42 41 42 43 43 43 40 29 32 43 49 55 55 55 54 56 58 57 57 55 57 57 56 60 56 52 51 50 50 52 52 50 50 49 50 56 50 51 50 50 50 53 55 53 53 54 54 54 56 55 54 54 56 58 59 60 63 63 61 61 62 62 63 64 65 66 68 67 69 70 70 70 69 69 70 71 71 70 70 69 67 67
24 34 39 34 39 41 42 42 45 49 44 38 38 46 55 53 54 55 56 56 55 55 55 59 59 59 59 60 59 60 56 54 52 51 50 50 51 51 53 54 50 45 43 46 46 47 50 51 54 55 56 57 58 57 56 55 55 55 55 57 58 59 62 62 62 63 65 65 64 64 67 67 67 65 66 68 68 69 68 67 66 66 66 65 64 64 65
25 32 36 33 33 43 44 44 42 50 44 44 50 54 55 56 56 55 55 54 54 54 57 56 56 57 57 57 57 58 58 58 59 53 51 52 50 49 49 49 46 45 46 45 45 47 48 49 51 53 54 56 56 56 55 55 55 57 57 57 58 59 61 60 61 60 64 63 64 64 65 64 64 64 66 66 67 67 66 65 65 65 64 65 64 64 63
29 30 36 35 41 44 48 48 46 49 50 51 53 55 54 56 55 56 55 56 55 54 54 55 55 53 53 54 53 55 56 59 58 55 53 52 50 48 47 46 47 48 48 48 48 48 49 52 52 54 55 56 57 56 56 57 56 57 58 58 60 58 59 59 57 58 58 63 65 65 64 64 63 64 66 66 67 66 66 65 65 65 65 65 64 63 62
38 38 39 43 44 44 45 47 47 48 50 50 50 54 54 55 56 58 56 58 56 57 54 55 56 55 54 53 53 54 56 55 55 54 51 50 49 48 47 46 49 48 47 48 49 50 51 54 54 56 55 55 56 56 56 58 58 56 56 56 56 57 57 57 58 56 58 62 63 63 62 62 63 63 63 65 66 67 65 64 64 64 64 65 65 64 63
41 41 43 44 42 42 41 43 46 46 46 48 52 55 55 55 57 57 58 57 56 56 56 53 53 55 53 52 52 51 53 56 56 56 52 51 51 48 47 49 49 48 46 45 46 48 50 51 53 57 55 55 56 56 55 57 58 58 56 56 56 55 53 54 54 54 56 53 54 59 58 60 62 64 62 62 64 65 67 63 63 63 63 62 63 63 62
33 34 41 41 42 42 43 43 45 47 48 48 49 54 56 56 56 57 58 57 56 55 55 56 55 53 52 52 53 57 57 55 54 54 56 55 53 51 51 51 52 50 48 47 48 48 47 47 48 50 53 55 57 59 59 56 57 59 59 57 57 56 57 50 52 52 51 51 52 53 55 55 56 58 61 60 58 59 59 57 61 62 61 62 62 60 60
38 39 42 42 42 45 46 45 45 45 46 47 49 52 55 57 57 57 57 57 56 57 56 55 55 54 54 55 55 57 59 59 60 59 60 59 56 56 54 52 53 52 50 49 50 52 54 54 54 53 53 53 54 57 53 52 52 54 56 55 52 52 50 51 53 48 49 49 52 49 51 53 54 55 57 56 54 54 53 53 52 53 56 57 59 60 62
41 42 41 41 42 41 43 43 45 46 46 46 47 47 53 56 55 55 56 57 57 57 56 58 57 56 53 55 55 55 57 58 58 58 59 60 59 57 56 55 55 58 55 54 54 53 53 54 54 54 54 55 54 57 55 55 57 56 56 55 55 54 51 47 47 56 51 51 51 52 52 55 54 55 54 54 55 53 53 53 52 50 53 55 57 55 56
36 42 40 41 37 40 43 44 45 45 46 47 47 47 47 47 50 53 53 54 55 55 55 56 56 57 56 55 56 55 56 57 58 58 58 58 57 56 55 54 56 57 57 56 55 55 55 55 54 55 54 55 58 53 55 56 57 57 57 55 50 46 47 48 50 50 48 45 50 55 52 51 52 53 54 49 52 53 52 54 51 48 49 53 53 56 53
39 46 47 51 52 51 48 48 46 47 47 48 48 48 48 47 48 48 49 51 52 54 54 54 56 57 57 56 56 55 55 57 58 59 58 57 57 57 54 54 56 57 56 56 56 56 56 57 56 56 56 53 55 53 55 56 55 56 57 57 53 48 48 47 51 52 51 52 53 58 55 55 54 53 50 53 44 44 50 51 46 42 42 43 45 48 59
48 48 46 44 46 47 48 47 47 48 50 49 47 48 48 48 48 49 48 49 50 50 51 52 53 56 56 56 57 56 56 58 58 58 59 59 58 58 58 57 58 57 57 56 55 55 56 57 57 57 55 55 56 53 54 53 55 56 54 56 56 53 52 51 55 56 53 54 55 55 58 56 58 59 56 55 54 45 41 45 45 41 41 42 42 43 45
45 48 48 48 52 49 46 48 47 47 47 49 49 49 48 46 46 48 49 50 49 50 50 50 48 51 54 55 55 57 57 56 58 58 59 60 60 59 57 57 57 57 57 57 57 56 54 56 55 56 56 54 54 52 54 54 55 57 57 54 51 50 53 56 55 54 54 56 55 56 56 57 56 55 55 57 54 54 56 43 42 41 42 42 41 41 41
48 48 48 47 47 48 48 47 47 48 47 48 50 51 51 50 48 48 49 51 51 50 49 49 52 50 51 53 54 54 56 56 57 58 59 59 59 58 57 56 58 59 59 59 58 56 55 56 56 54 55 53 55 54 51 53 54 56 56 54 53 54 55 53 54 56 56 53 56 56 56 57 56 54 55 53 51 57 54 53 53 51 44 43 41 41 39
48 47 47 45 45 47 46 49 48 49 48 47 46 48 48 46 48 46 46 49 51 51 51 50 51 52 53 51 52 52 54 58 59 59 59 59 57 59 58 58 57 58 57 58 58 57 57 58 57 57 56 55 55 55 55 56 57 56 52 51 50 49 51 54 57 55 54 56 55 55 56 56 55 54 54 56 53 51 53 55 55 54 53 55 48 43 52
48 47 46 47 46 48 49 50 51 50 48 47 46 44 42 43 45 46 44 46 48 49 50 53 52 52 51 55 53 55 52 54 56 58 59 59 59 57 59 59 58 58 58 58 58 58 57 57 56 56 56 55 56 56 54 55 56 56 55 54 52 50 51 52 53 54 55 55 56 56 55 56 54 53 52 52 52 53 53 53 52 53 55 53 53 51 45
49 48 46 48 51 52 51 49 48 47 49 47 45 43 41 41 39 40 43 44 46 46 46 49 51 51 51 52 53 53 54 54 54 56 59 60 60 60 60 60 59 59 59 58 57 58 57 57 56 55 56 57 56 55 53 54 55 53 54 53 52 52 52 53 53 53 53 53 55 53 47 50 49 53 52 53 52 50 52 53 54 53 54 56 55 54 52
49 50 48 49 49 50 49 46 47 46 46 47 41 42 42 40 39 39 39 41 44 42 43 45 48 49 49 48 50 52 53 53 55 57 58 59 59 60 61 60 59 59 59 58 58 58 57 56 56 57 56 56 53 55 52 55 54 54 54 54 55 55 54 54 55 54 54 55 50 46 53 51 56 56 52 51 50 48 50 51 52 49 49 52 55 55 55
49 48 48 49 48 46 46 47 48 47 45 44 44 40 40 40 39 41 42 43 42 42 44 45 46 47 48 48 49 51 53 54 54 55 55 57 58 59 61 60 59 59 58 58 59 58 57 57 56 57 58 56 53 54 54 53 54 53 53 54 51 51 48 45 43 51 51 51 52 50 51 50 49 49 48 47 48 50 52 51 51 51 51 52 52 52 51
48 48 49 48 47 45 45 48 47 45 45 44 42 43 44 43 42 42 41 40 41 40 41 42 44 47 47 47 48 50 50 51 52 54 54 55 56 59 59 59 59 59 59 61 61 60 59 58 57 58 59 58 55 55 54 54 54 51 50 53 51 47 45 47 44 44 48 49 48 48 48 48 48 49 48 49 50 50 49 49 49 51 49 49 51 50 50
48 47 47 47 46 44 44 46 45 44 44 44 45 45 45 44 44 43 43 44 42 44 43 44 46 47 48 48 48 48 48 50 51 51 51 54 56 56 58 60 60 61 60 60 59 60 60 59 59 59 59 57 56 54 52 53 54 51 51 51 52 49 47 47 48 48 47 46 48 48 49 50 48 48 48 49 48 47 47 47 48 47 48 49 50 48 46
48 47 47 48 47 46 45 45 45 45 45 44 43 43 42 43 43 43 43 45 43 44 45 47 48 47 47 47 48 46 46 47 46 47 48 51 53 55 57 57 58 60 61 60 59 58 59 61 62 60 59 57 57 54 53 53 53 53 54 50 48 51 49 46 45 45 47 48 48 50 49 47 48 47 48 48 48 48 48 48 47 47 47 48 49 47 45
48 51 49 47 47 47 46 44 45 44 43 41 39 42 43 43 42 42 43 43 43 43 45 45 47 47 46 47 47 45 44 46 46 46 49 51 52 54 57 57 56 58 58 58 60 60 60 60 60 60 59 58 57 55 55 52 50 51 51 52 51 49 49 50 48 48 48 48 49 49 50 49 48 48 47 46 46 46 46 47 46 45 45 45 50 49 48
50 50 50 50 49 48 47 46 44 44 44 43 43 42 43 43 43 43 43 44 43 44 45 46 46 45 45 46 46 45 46 45 47 48 49 50 51 53 53 55 57 57 57 57 58 59 60 60 59 59 60 58 56 55 54 53 51 51 52 49 50 48 49 48 48 47 48 47 46 47 47 48 47 48 47 47 46 46 46 45 45 44 43 44 45 47 47
50 51 51 50 50 48 48 48 46 45 46 45 44 43 44 44 43 45 46 46 44 46 47 47 47 46 46 46 45 44 46 47 47 48 49 50 51 52 51 52 54 55 57 55 56 59 60 60 60 59 59 59 60 59 57 58 58 55 54 50 49 47 46 46 46 47 47 49 47 46 47 46 46 45 48 47 45 45 44 42 43 44 43 43 42 43 44
50 50 51 50 49 47 46 46 46 45 43 43 45 46 47 46 47 47 48 47 46 47 47 47 46 47 48 47 47 45 45 46 45 46 48 50 50 50 51 52 53 56 55 56 57 56 59 59 58 57 58 59 59 57 56 56 54 51 49 48 48 47 46 45 45 46 46 46 48 46 45 45 45 44 45 46 46 43 42 42 42 44 45 43 43 44 43
49 49 49 48 46 45 45 45 45 45 45 46 46 47 48 48 47 47 47 47 47 46 46 46 45 45 45 44 44 44 44 45 45 44 46 48 50 49 50 51 53 55 56 57 56 56 59 57 56 56 57 57 54 53 53 54 53 51 49 49 48 46 45 44 44 45 47 47 45 44 45 44 46 43 42 43 41 43 43 46 43 44 43 43 42 41 41
49 48 47 45 45 46 46 46 45 46 45 45 45 45 45 45 45 46 46 46 46 47 46 46 45 43 43 44 44 44 45 45 45 46 46 47 49 49 50 51 54 55 56 56 57 57 57 57 57 57 57 57 56 55 54 54 52 50 49 48 48 46 46 46 44 43 43 44 43 44 44 44 43 42 42 41 40 41 40 41 42 42 41 41 41 40 40
49 48 47 45 46 46 45 46 46 46 45 44 44 44 45 44 44 45 45 45 46 46 47 46 46 45 45 43 43 43 44 44 45 46 48 48 47 48 48 49 53 55 56 56 55 57 57 56 56 55 55 55 54 53 51 50 49 48 49 46 45 45 44 43 42 42 44 43 44 42 43 43 42 41 41 40 40 40 40 40 41 40 39 39 40 39 39
48 47 46 45 45 45 45 45 44 43 44 43 44 44 44 45 45 45 46 46 46 46 47 46 46 46 46 45 44 44 43 44 45 45 47 48 46 46 47 51 54 56 55 56 56 56 57 57 57 54 53 52 52 51 51 50 47 45 44 43 43 44 44 43 43 45 48 43 42 42 42 42 41 40 39 40 39 40 39 39 39 39 38 38 39 39 38
46 45 45 45 44 45 44 44 44 43 42 43 43 44 46 45 46 46 45 45 46 46 46 47 47 47 46 45 45 45 46 46 47 47 47 47 50 52 52 54 55 55 55 56 56 55 56 56 56 53 53 50 49 50 48 49 48 50 48 47 44 47 46 49 49 45 47 44 42 42 42 41 39 39 38 38 38 38 38 38 38 38 38 37 38 37 38
45 44 44 44 44 43 43 42 42 42 41 43 45 45 46 47 46 46 45 46 46 46 46 46 46 46 46 46 46 46 46 47 48 48 48 50 51 52 53 54 54 54 54 56 55 55 55 55 54 51 51 50 48 47 46 43 43 46 42 42 42 41 41 41 40 40 39 39 39 39 39 39 38 38 37 37 37 37 38 37 37 38 37 37 37 37 37
45 45 44 43 43 43 42 41 42 43 43 44 45 46 46 46 47 47 47 47 47 47 47 48 47 47 47 46 47 47 49 51 51 48 48 48 47 48 53 52 53 52 52 52 54 54 54 53 51 50 49 48 47 45 48 42 46 43 44 41 41 40 39 39 39 39 39 38 38 38 38 37 38 37 37 37 38 36 36 36 36 36 37 36 36 36 36
44 43 43 41 42 42 41 43 43 45 44 44 45 44 46 46 46 46 46 46 47 46 46 47 47 47 47 47 48 47 47 47 47 49 51 48 48 51 52 51 51 50 51 52 51 50 49 50 49 48 47 46 45 44 44 48 43 41 41 40 40 40 38 37 37 37 37 37 37 37 36 36 36 36 36 36 36 35 36 36 36 36 36 37 36 35 36
42 41 40 42 41 42 42 43 44 44 44 43 43 44 46 46 45 45 45 46 46 46 46 46 46 47 48 48 48 47 46 44 49 52 52 52 51 51 50 49 48 49 49 49 50 51 49 49 49 47 46 45 44 43 41 40 41 40 40 40 39 37 36 36 37 37 36 35 37 37 37 37 35 35 36 36 35 35 35 36 35 35 35 36 36 36 36
41 40 40 41 40 40 43 43 43 42 42 44 43 44 44 44 45 45 44 44 45 45 45 46 47 47 48 48 49 48 48 48 47 50 51 51 50 49 49 47 47 48 47 47 47 47 47 46 46 45 44 45 45 45 40 38 40 40 39 39 39 36 35 35 34 35 35 37 37 36 35 35 35 35 36 35 35 34 35 35 35 35 35 35 35 35 35
42 42 41 41 40 41 42 42 41 42 43 43 44 45 45 45 45 45 44 45 45 43 42 44 45 47 47 48 49 48 49 50 52 48 49 49 47 46 46 48 47 46 47 44 44 44 45 45 45 46 46 46 45 44 41 40 39 37 37 35 36 36 36 35 35 36 34 35 35 35 36 34 35 35 35 34 35 34 35 35 35 36 35 35 35 36 36
42 40 40 42 40 41 41 40 39 43 44 44 45 45 45 45 43 42 43 43 43 43 42 42 44 46 46 47 50 51 49 49 49 48 48 47 46 46 45 45 46 45 45 44 42 39 42 43 43 43 46 47 48 46 44 43 40 37 35 37 36 39 39 38 40 40 37 36 35 36 36 35 35 34 35 35 34 34 35 35 36 36 38 36 36 36 36
42 41 37 42 40 43 42 43 43 44 44 43 43 43 44 43 40 41 41 41 43 41 41 42 43 44 46 46 46 47 47 47 47 46 46 45 45 44 44 44 43 43 43 41 40 37 37 37 38 41 40 42 49 48 48 46 36 36 34 34 37 38 36 36 35 34 34 35 34 34 34 34 35 36 34 34 34 35 36 36 36 36 36 36 36 36 35
42 42 40 38 39 41 42 43 45 45 44 43 42 43 40 39 37 39 40 41 41 40 40 41 42 44 45 45 45 44 45 45 45 44 45 45 44 44 44 43 42 42 42 42 43 42 42 44 46 44 44 46 45 39 35 36 35 34 34 37 35 36 37 36 35 33 34 34 34 34 33 34 33 33 35 35 35 35 36 36 37 36 37 36 36 37 36